DLH998 EDDF-EHAM

Flight info

Callsign DLH998
Flight time 0h 47m
Altitude 24000
Route MARUN6E/07C MARUN Y152 ARPEG Z850 ABILU DCT NORKU
Aircraft A319/M-SDE3FGHIRWY/LB1

Departure

Time 2026-05-07 19:15
Airport Frankfurt Main Airport (EDDF)

Arrival

Time 2026-05-07 20:02
Airport Amsterdam Airport Schiphol (EHAM)
Time Latitude Longitude Altitude Speed Heading
2026-05-07 18:42 50.04737 8.56737 361 ft 0 kts 115°
2026-05-07 18:53 50.04737 8.56736 356 ft 0 kts 115°
2026-05-07 19:02 50.04742 8.56718 364 ft 4 kts 107°
2026-05-07 19:02 50.04749 8.56686 359 ft 4 kts 126°
2026-05-07 19:03 50.04767 8.56668 363 ft 4 kts 188°
2026-05-07 19:03 50.04786 8.56677 359 ft 0 kts 205°
2026-05-07 19:05 50.04785 8.56676 359 ft 1 kts 205°
2026-05-07 19:06 50.04777 8.56670 362 ft 3 kts 206°
2026-05-07 19:06 50.04706 8.56558 356 ft 12 kts 231°
2026-05-07 19:06 50.04663 8.56420 356 ft 16 kts 251°
2026-05-07 19:07 50.04628 8.56258 361 ft 14 kts 247°
2026-05-07 19:07 50.04594 8.56127 360 ft 12 kts 248°
2026-05-07 19:07 50.04568 8.56023 360 ft 9 kts 250°
2026-05-07 19:07 50.04532 8.55957 358 ft 8 kts 201°
2026-05-07 19:08 50.04487 8.55934 358 ft 6 kts 198°
2026-05-07 19:08 50.04445 8.55914 361 ft 8 kts 198°
2026-05-07 19:08 50.04380 8.55909 362 ft 12 kts 166°
2026-05-07 19:08 50.04288 8.55961 359 ft 16 kts 167°
2026-05-07 19:09 50.04182 8.55922 353 ft 16 kts 166°
2026-05-07 19:09 50.04073 8.55972 351 ft 16 kts 188°
2026-05-07 19:09 50.04022 8.55841 358 ft 14 kts 249°
2026-05-07 19:09 50.03989 8.55701 351 ft 14 kts 249°
2026-05-07 19:10 50.03954 8.55551 351 ft 15 kts 249°
2026-05-07 19:10 50.03917 8.55400 351 ft 15 kts 250°
2026-05-07 19:10 50.03883 8.55253 351 ft 14 kts 250°
2026-05-07 19:10 50.03843 8.55092 350 ft 18 kts 250°
2026-05-07 19:11 50.03794 8.54888 356 ft 22 kts 249°
2026-05-07 19:11 50.03737 8.54652 347 ft 24 kts 250°
2026-05-07 19:11 50.03677 8.54398 351 ft 26 kts 249°
2026-05-07 19:11 50.03585 8.54321 350 ft 12 kts 158°
2026-05-07 19:12 50.03572 8.54330 341 ft 0 kts 158°
2026-05-07 19:12 50.03569 8.54332 341 ft 3 kts 158°
2026-05-07 19:12 50.03534 8.54354 343 ft 6 kts 158°
2026-05-07 19:13 50.03489 8.54394 350 ft 8 kts 119°
2026-05-07 19:13 50.03504 8.54479 345 ft 7 kts 69°
2026-05-07 19:13 50.03511 8.54504 349 ft 0 kts 69°
2026-05-07 19:13 50.03511 8.54505 349 ft 0 kts 69°
2026-05-07 19:14 50.03513 8.54515 346 ft 3 kts 69°
2026-05-07 19:14 50.03577 8.54776 344 ft 64 kts 69°
2026-05-07 19:14 50.03814 8.55776 353 ft 130 kts 70°
2026-05-07 19:14 50.04164 8.57243 449 ft 168 kts 70°
2026-05-07 19:15 50.04517 8.58778 1172 ft 162 kts 70°
2026-05-07 19:15 50.04898 8.60434 1851 ft 168 kts 69°
2026-05-07 19:15 50.05386 8.62205 2255 ft 190 kts 55°
2026-05-07 19:15 50.06408 8.63436 2624 ft 208 kts 19°
2026-05-07 19:16 50.07896 8.63583 3342 ft 214 kts 357°
2026-05-07 19:16 50.09382 8.63465 4267 ft 214 kts 356°
2026-05-07 19:16 50.10884 8.63352 5061 ft 222 kts 356°
2026-05-07 19:16 50.12492 8.63236 5610 ft 239 kts 356°
2026-05-07 19:17 50.14238 8.63114 5947 ft 262 kts 356°
2026-05-07 19:17 50.16085 8.62991 6187 ft 271 kts 356°
2026-05-07 19:17 50.17966 8.62869 7173 ft 271 kts 356°
2026-05-07 19:17 50.19844 8.62748 7428 ft 269 kts 356°
2026-05-07 19:18 50.21718 8.62624 6973 ft 270 kts 356°
2026-05-07 19:18 50.23589 8.62499 6556 ft 269 kts 356°
2026-05-07 19:18 50.25453 8.62374 6141 ft 267 kts 356°
2026-05-07 19:18 50.27303 8.62245 5731 ft 265 kts 356°
2026-05-07 19:19 50.28965 8.62129 5380 ft 263 kts 356°
2026-05-07 19:19 50.30783 8.62009 5098 ft 259 kts 356°
2026-05-07 19:19 50.32591 8.61890 5080 ft 261 kts 356°
2026-05-07 19:19 50.34405 8.61823 5087 ft 261 kts 358°
2026-05-07 19:20 50.36223 8.61820 5083 ft 261 kts 359°
2026-05-07 19:20 50.38050 8.61836 5231 ft 268 kts 359°
2026-05-07 19:20 50.39921 8.61850 6265 ft 268 kts 359°
2026-05-07 19:20 50.41794 8.61862 7287 ft 270 kts 359°
2026-05-07 19:21 50.43692 8.61870 8234 ft 275 kts 359°
2026-05-07 19:21 50.45616 8.62032 9186 ft 279 kts
2026-05-07 19:21 50.47550 8.62315 10114 ft 283 kts
2026-05-07 19:21 50.49588 8.62606 10611 ft 303 kts
2026-05-07 19:22 50.51773 8.62912 10922 ft 327 kts
2026-05-07 19:22 50.54116 8.63216 11273 ft 346 kts
2026-05-07 19:22 50.56507 8.62753 11907 ft 353 kts 342°
2026-05-07 19:22 50.58806 8.61269 12666 ft 357 kts 335°
2026-05-07 19:23 50.61090 8.59670 13443 ft 361 kts 335°
2026-05-07 19:23 50.63392 8.58035 14169 ft 365 kts 334°
2026-05-07 19:23 50.65727 8.56369 14861 ft 369 kts 334°
2026-05-07 19:23 50.68070 8.54698 15547 ft 373 kts 334°
2026-05-07 19:24 50.70410 8.53031 16214 ft 376 kts 334°
2026-05-07 19:24 50.72780 8.51344 16902 ft 380 kts 334°
2026-05-07 19:24 50.75221 8.49604 17587 ft 383 kts 334°
2026-05-07 19:24 50.77666 8.47857 18270 ft 387 kts 334°
2026-05-07 19:25 50.80128 8.46099 18871 ft 390 kts 334°
2026-05-07 19:25 50.82584 8.44345 19441 ft 394 kts 334°
2026-05-07 19:25 50.84908 8.42684 19979 ft 397 kts 334°
2026-05-07 19:25 50.87440 8.40871 20559 ft 401 kts 334°
2026-05-07 19:26 50.89946 8.39073 21103 ft 404 kts 334°
2026-05-07 19:26 50.92516 8.37227 21641 ft 408 kts 334°
2026-05-07 19:26 50.95107 8.35365 22182 ft 411 kts 334°
2026-05-07 19:26 50.97720 8.33483 22700 ft 414 kts 334°
2026-05-07 19:27 51.00352 8.31580 23222 ft 417 kts 333°
2026-05-07 19:27 51.02986 8.29602 23705 ft 420 kts 331°
2026-05-07 19:27 51.05579 8.27441 24018 ft 422 kts 329°
2026-05-07 19:27 51.08150 8.25140 24083 ft 428 kts 328°
2026-05-07 19:28 51.10778 8.22699 24109 ft 436 kts 328°
2026-05-07 19:28 51.13407 8.20246 24102 ft 438 kts 328°
2026-05-07 19:28 51.16013 8.17847 24108 ft 439 kts 328°
2026-05-07 19:28 51.18701 8.15412 24106 ft 439 kts 329°
2026-05-07 19:29 51.21357 8.13034 24108 ft 439 kts 329°
2026-05-07 19:29 51.24026 8.10660 24107 ft 439 kts 329°
2026-05-07 19:29 51.26693 8.08288 24098 ft 439 kts 329°
2026-05-07 19:29 51.29324 8.05938 24102 ft 439 kts 329°
2026-05-07 19:30 51.31988 8.03551 24108 ft 439 kts 329°
2026-05-07 19:30 51.34650 8.01164 24110 ft 438 kts 329°
2026-05-07 19:30 51.37309 7.98774 24106 ft 438 kts 329°
2026-05-07 19:30 51.39965 7.96375 24106 ft 438 kts 328°
2026-05-07 19:31 51.42494 7.93677 24103 ft 436 kts 322°
2026-05-07 19:31 51.44930 7.90770 24099 ft 437 kts 322°
2026-05-07 19:31 51.47396 7.87825 24104 ft 437 kts 322°
2026-05-07 19:31 51.49804 7.84952 24098 ft 437 kts 322°
2026-05-07 19:32 51.51999 7.82332 24101 ft 437 kts 322°
2026-05-07 19:32 51.54328 7.79552 24102 ft 436 kts 322°
2026-05-07 19:32 51.56731 7.76679 24103 ft 436 kts 322°
2026-05-07 19:32 51.59165 7.73763 24104 ft 436 kts 322°
2026-05-07 19:33 51.61598 7.70848 24103 ft 436 kts 322°
2026-05-07 19:33 51.64031 7.67932 24102 ft 436 kts 322°
2026-05-07 19:33 51.66462 7.65012 24101 ft 436 kts 322°
2026-05-07 19:33 51.68894 7.62084 24100 ft 436 kts 322°
2026-05-07 19:34 51.71320 7.59157 24099 ft 436 kts 322°
2026-05-07 19:34 51.73743 7.56226 24096 ft 436 kts 321°
2026-05-07 19:34 51.76170 7.53289 24098 ft 436 kts 321°
2026-05-07 19:34 51.78595 7.50354 24097 ft 436 kts 321°
2026-05-07 19:35 51.81019 7.47415 24108 ft 436 kts 321°
2026-05-07 19:35 51.83441 7.44470 24104 ft 436 kts 321°
2026-05-07 19:35 51.85861 7.41521 24101 ft 436 kts 321°
2026-05-07 19:35 51.88289 7.38564 24093 ft 436 kts 321°
2026-05-07 19:36 51.90709 7.35612 24091 ft 436 kts 321°
2026-05-07 19:36 51.93134 7.32652 24100 ft 436 kts 321°
2026-05-07 19:36 51.95556 7.29694 24098 ft 436 kts 321°
2026-05-07 19:36 51.97980 7.26733 24100 ft 436 kts 321°
2026-05-07 19:37 52.00400 7.23770 24095 ft 436 kts 321°
2026-05-07 19:37 52.02817 7.20803 24095 ft 436 kts 321°
2026-05-07 19:37 52.05235 7.17830 24094 ft 436 kts 321°
2026-05-07 19:37 52.07653 7.14854 24092 ft 436 kts 321°
2026-05-07 19:38 52.10070 7.11875 24090 ft 436 kts 321°
2026-05-07 19:38 52.12487 7.08890 24084 ft 436 kts 321°
2026-05-07 19:38 52.14903 7.05900 24085 ft 437 kts 321°
2026-05-07 19:38 52.17323 7.02908 24088 ft 437 kts 321°
2026-05-07 19:39 52.19752 6.99899 23979 ft 441 kts 321°
2026-05-07 19:39 52.22031 6.96576 23742 ft 439 kts 312°
2026-05-07 19:39 52.24006 6.92791 23476 ft 438 kts 308°
2026-05-07 19:39 52.25278 6.90241 23293 ft 437 kts 308°
2026-05-07 19:40 52.27842 6.85101 22925 ft 436 kts 308°
2026-05-07 19:40 52.29755 6.81269 22648 ft 434 kts 308°
2026-05-07 19:40 52.31656 6.77458 22380 ft 433 kts 308°
2026-05-07 19:40 52.33547 6.73643 22117 ft 431 kts 307°
2026-05-07 19:41 52.35090 6.69467 21851 ft 428 kts 292°
2026-05-07 19:41 52.35877 6.64798 21579 ft 426 kts 276°
2026-05-07 19:41 52.35863 6.59986 21319 ft 423 kts 264°
2026-05-07 19:41 52.35578 6.55194 21060 ft 422 kts 264°
2026-05-07 19:42 52.35292 6.50426 20797 ft 421 kts 264°
2026-05-07 19:42 52.35005 6.45667 20542 ft 420 kts 264°
2026-05-07 19:42 52.34717 6.40920 20288 ft 419 kts 264°
2026-05-07 19:42 52.34430 6.36190 20034 ft 417 kts 264°
2026-05-07 19:43 52.34143 6.31482 19787 ft 416 kts 264°
2026-05-07 19:43 52.33858 6.26788 19540 ft 414 kts 264°
2026-05-07 19:43 52.33573 6.22103 19295 ft 413 kts 264°
2026-05-07 19:43 52.33287 6.17441 19051 ft 412 kts 264°
2026-05-07 19:44 52.32998 6.12785 18809 ft 410 kts 264°
2026-05-07 19:44 52.32708 6.08154 18504 ft 407 kts 263°
2026-05-07 19:44 52.32418 6.03585 17856 ft 403 kts 263°
2026-05-07 19:44 52.32134 5.99114 17290 ft 398 kts 264°
2026-05-07 19:45 52.31845 5.94579 16737 ft 394 kts 263°
2026-05-07 19:45 52.31564 5.90209 16201 ft 390 kts 263°
2026-05-07 19:45 52.31281 5.85814 15661 ft 386 kts 264°
2026-05-07 19:45 52.31000 5.81476 15123 ft 382 kts 263°
2026-05-07 19:46 52.30716 5.77172 14552 ft 379 kts 263°
2026-05-07 19:46 52.30433 5.72911 13990 ft 376 kts 263°
2026-05-07 19:46 52.30151 5.68674 13345 ft 373 kts 263°
2026-05-07 19:46 52.29871 5.64481 12741 ft 369 kts 263°
2026-05-07 19:47 52.29594 5.60339 12124 ft 365 kts 264°
2026-05-07 19:47 52.29319 5.56239 11477 ft 361 kts 264°
2026-05-07 19:47 52.29137 5.53550 11101 ft 358 kts 264°
2026-05-07 19:47 52.28869 5.49600 10958 ft 341 kts 263°
2026-05-07 19:48 52.28611 5.45846 10831 ft 325 kts 263°
2026-05-07 19:48 52.28363 5.42260 10707 ft 311 kts 263°
2026-05-07 19:48 52.28126 5.38813 10581 ft 299 kts 263°
2026-05-07 19:48 52.27900 5.35499 10401 ft 290 kts 263°
2026-05-07 19:49 52.27680 5.32283 10312 ft 285 kts 263°
2026-05-07 19:49 52.27420 5.29078 10243 ft 284 kts 257°
2026-05-07 19:49 52.26908 5.25963 10167 ft 285 kts 253°
2026-05-07 19:49 52.26349 5.22876 9934 ft 282 kts 253°
2026-05-07 19:50 52.25781 5.19772 9486 ft 282 kts 253°
2026-05-07 19:50 52.25231 5.16759 9104 ft 280 kts 252°
2026-05-07 19:50 52.24683 5.13724 8707 ft 278 kts 252°
2026-05-07 19:50 52.24138 5.10673 8326 ft 275 kts 253°
2026-05-07 19:51 52.23608 5.07680 7927 ft 274 kts 253°
2026-05-07 19:51 52.23080 5.04706 7507 ft 271 kts 252°
2026-05-07 19:51 52.22563 5.01773 6893 ft 269 kts 253°
2026-05-07 19:51 52.22046 4.98862 6279 ft 267 kts 253°
2026-05-07 19:52 52.21545 4.95997 5639 ft 265 kts 252°
2026-05-07 19:52 52.21038 4.93117 4975 ft 264 kts 252°
2026-05-07 19:52 52.20531 4.90204 4316 ft 262 kts 252°
2026-05-07 19:52 52.20044 4.87390 3660 ft 261 kts 253°
2026-05-07 19:53 52.19554 4.84552 2969 ft 261 kts 257°
2026-05-07 19:53 52.19594 4.81622 2307 ft 260 kts 286°
2026-05-07 19:53 52.20177 4.78858 2041 ft 252 kts 291°
2026-05-07 19:53 52.20782 4.76257 2006 ft 241 kts 291°
2026-05-07 19:54 52.21379 4.73709 2005 ft 240 kts 292°
2026-05-07 19:54 52.22036 4.71282 1996 ft 226 kts 307°
2026-05-07 19:54 52.23139 4.69597 2009 ft 214 kts 332°
2026-05-07 19:54 52.24472 4.68585 2008 ft 211 kts 334°
2026-05-07 19:55 52.25492 4.66885 2011 ft 215 kts 297°
2026-05-07 19:55 52.26051 4.64631 2012 ft 214 kts 295°
2026-05-07 19:55 52.26568 4.62372 1998 ft 214 kts 277°
2026-05-07 19:55 52.26418 4.59961 2015 ft 215 kts 255°
2026-05-07 19:56 52.25702 4.57875 2004 ft 211 kts 220°
2026-05-07 19:56 52.24461 4.56636 2032 ft 210 kts 213°
2026-05-07 19:56 52.23430 4.54938 2057 ft 213 kts 228°
2026-05-07 19:56 52.22480 4.53121 2015 ft 212 kts 227°
2026-05-07 19:57 52.21414 4.51496 2004 ft 210 kts 205°
2026-05-07 19:57 52.20023 4.51075 2008 ft 204 kts 168°
2026-05-07 19:57 52.18789 4.52081 2012 ft 199 kts 131°
2026-05-07 19:57 52.18215 4.54066 2011 ft 196 kts 94°
2026-05-07 19:58 52.18532 4.56164 2023 ft 194 kts 58°
2026-05-07 19:58 52.19611 4.57440 2013 ft 196 kts 25°
2026-05-07 19:58 52.20839 4.58408 2004 ft 195 kts 30°
2026-05-07 19:58 52.22042 4.59435 2004 ft 195 kts 30°
2026-05-07 19:59 52.23234 4.60495 1884 ft 191 kts 35°
2026-05-07 19:59 52.24162 4.61883 1697 ft 173 kts 51°
2026-05-07 19:59 52.24857 4.63380 1480 ft 161 kts 57°
2026-05-07 19:59 52.25470 4.64865 1279 ft 155 kts 58°
2026-05-07 20:00 52.26033 4.66284 1072 ft 144 kts 59°
2026-05-07 20:00 52.26550 4.67614 891 ft 134 kts 58°
2026-05-07 20:00 52.27034 4.68879 709 ft 130 kts 57°
2026-05-07 20:00 52.27510 4.70120 544 ft 128 kts 58°
2026-05-07 20:01 52.27983 4.71357 394 ft 129 kts 57°
2026-05-07 20:01 52.28471 4.72585 225 ft 128 kts 57°
2026-05-07 20:01 52.28948 4.73817 38 ft 127 kts 58°
2026-05-07 20:01 52.29379 4.74944 -3 ft 99 kts 57°
2026-05-07 20:02 52.29657 4.75665 -2 ft 54 kts 58°
2026-05-07 20:02 52.29832 4.76124 -7 ft 45 kts 58°
2026-05-07 20:02 52.30000 4.76514 -3 ft 32 kts 38°
2026-05-07 20:02 52.30187 4.76673 -2 ft 19 kts 24°
2026-05-07 20:03 52.30237 4.76716 -2 ft 8 kts 28°
2026-05-07 20:03 52.30288 4.76749 -3 ft 9 kts
2026-05-07 20:03 52.30357 4.76720 -2 ft 12 kts
2026-05-07 20:03 52.30421 4.76851 -2 ft 17 kts 58°
2026-05-07 20:04 52.30487 4.77020 -2 ft 18 kts 57°
2026-05-07 20:04 52.30557 4.77197 -2 ft 19 kts 57°
2026-05-07 20:04 52.30602 4.77321 -2 ft 0 kts 62°
2026-05-07 20:06 52.30602 4.77322 -2 ft 3 kts 62°
2026-05-07 20:06 52.30654 4.77440 -2 ft 15 kts 32°
2026-05-07 20:07 52.30740 4.77459 -2 ft 15 kts
2026-05-07 20:07 52.30816 4.77463 -2 ft 10 kts 346°
2026-05-07 20:07 52.30839 4.77379 -2 ft 6 kts 271°
2026-05-07 20:07 52.30815 4.77359 -2 ft 7 kts 182°
2026-05-07 20:08 52.30789 4.77357 -2 ft 0 kts 184°